Content
SEND FEEDBACK

Daily
Averages
Monthly
Summary
United States of America

EASTON, MAINE


Home > North America > United States > Maine
Elevation: 622 feet     Latitude: 46 39N     Longitude: 068 00W

WEATHER
 
SELECT A DAY
Number of Records: 458,958;   Date Range: 1/1/95 - 8/12/14
 
SHARE

PRINT THIS DATA

[ ← Previous Day ]
WEATHER ALMANAC - JANUARY 31, 2013
[ Next Day → ]
[ °C ]   °F
Weather ElementAverageHighLow
Temperature41.1 °F53.6 °F (8:15 am) (12:35 pm)
Dewpoint33.4 °F50 °F (9:55 am) (7:00 pm)
Humidity75 %93 % (12:35 am)43 % (10:35 pm)
Barometer28.90 in29.20 in (12:35 am)28.50 in (12:15 pm)
Wind Speed18.4 mph31.1 mph (12:35 pm)
Wind Gust46 mph (12:35 pm)
Weather ElementAverage
Visibility9.1 mi
Wind DirectionSSW (204.9 °)

Weather ElementTotal
Precipitation1.18 in
Heating Degree Days38.2 (Base 65)
Averaged from 65 records on January 31, 2013
WEATHER CONDITIONS BREAKOUT
WIND DIRECTION BREAKOUT
WEATHER BY HOUR - JANUARY 31, 2013
[ °C ]   °F
Local TimeTemperatureDewpointHumidityBarometerVisibilityWind DirectionWind SpeedGust SpeedPrecipitationEventsConditions
12:35 AM46.4 °F44.6 °F93 %29.20 in10.0 miSSE (160°)12.7 mph17.3 mphOvercast
12:55 AM48.2 °F44.6 °F87 %29.20 in10.0 miSouth (180°)12.7 mph18.4 mphOvercast
1:15 AM46.4 °F44.6 °F93 %29.19 in10.0 miSouth (170°)15.0 mphOvercast
1:35 AM48.2 °F44.6 °F87 %29.20 in10.0 miSouth (190°)10.4 mph20.7 mphOvercast
1:55 AM48.2 °F44.6 °F87 %29.18 in8.0 miSouth (180°)12.7 mph18.4 mphOvercast
2:15 AM48.2 °F44.6 °F87 %29.19 in10.0 miSouth (190°)10.4 mphOvercast
2:35 AM48.2 °F46.4 °F93 %29.17 in10.0 miSouth (180°)12.7 mph17.3 mphOvercast
2:55 AM48.2 °F44.6 °F87 %29.15 in10.0 miSouth (170°)10.4 mphOvercast
3:15 AM48.2 °F46.4 °F93 %29.15 in10.0 miSouth (190°)9.2 mph0.01 inOvercast
3:35 AM48.2 °F46.4 °F93 %29.14 in10.0 miSouth (190°)12.7 mph18.4 mph0.02 inOvercast
3:55 AM48.2 °F46.4 °F93 %29.12 in10.0 miSouth (180°)9.2 mph0.05 inOvercast
4:15 AM48.2 °F46.4 °F93 %29.09 in10.0 miSouth (180°)10.4 mph0.03 inOvercast
4:35 AM48.2 °F46.4 °F93 %29.07 in10.0 miSouth (180°)6.9 mph0.10 inOvercast
4:55 AM48.2 °F46.4 °F93 %29.04 in5.0 miSE (140°)6.9 mph0.18 inOvercast
5:15 AM48.2 °F46.4 °F93 %29.02 in9.0 miSSE (160°)10.4 mph0.06 inOvercast
5:35 AM48.2 °F46.4 °F93 %28.98 in10.0 miSE (140°)11.5 mph0.10 inOvercast
5:55 AM48.2 °F44.6 °F87 %28.96 in10.0 miSE (140°)10.4 mph0.12 inOvercast
6:15 AM48.2 °F44.6 °F87 %28.96 in7.0 miSSE (160°)9.2 mph0.03 inOvercast
6:35 AM48.2 °F46.4 °F93 %28.92 in6.0 miSSE (150°)11.5 mph0.05 inOvercast
6:55 AM48.2 °F46.4 °F93 %28.91 in9.0 miSouth (170°)10.4 mph0.05 inOvercast
7:35 AM51.8 °F48.2 °F88 %28.86 in10.0 miSSE (160°)13.8 mph19.6 mph0.01 inOvercast
7:55 AM51.8 °F48.2 °F88 %28.83 in10.0 miSouth (170°)17.3 mph20.7 mph0.03 inOvercast
8:15 AM53.6 °F48.2 °F82 %28.80 in10.0 miSouth (170°)16.1 mph23.0 mph0.01 inOvercast
8:35 AM53.6 °F48.2 °F82 %28.77 in10.0 miSouth (170°)21.9 mph29.9 mph0.02 inOvercast
8:55 AM53.6 °F48.2 °F82 %28.74 in10.0 miSouth (170°)25.3 mph34.5 mph0.03 inOvercast
9:15 AM53.6 °F48.2 °F82 %28.71 in6.0 miSouth (170°)21.9 mph34.5 mph0.01 inOvercast
9:35 AM53.6 °F48.2 °F82 %28.70 in8.0 miSouth (180°)20.7 mph32.2 mph0.02 inOvercast
9:55 AM53.6 °F50.0 °F88 %28.68 in4.0 miSouth (180°)21.9 mph31.1 mph0.02 inOvercast
10:15 AM53.6 °F50.0 °F88 %28.67 in4.0 miSouth (180°)23.0 mph34.5 mphOvercast
10:35 AM53.6 °F50.0 °F88 %28.65 in10.0 miSouth (190°)23.0 mph33.4 mphOvercast
10:55 AM53.6 °F48.2 °F82 %28.63 in10.0 miSouth (190°)23.0 mph35.7 mphOvercast
11:15 AM53.6 °F48.2 °F82 %28.60 in10.0 miSouth (180°)23.0 mph32.2 mph0.01 inOvercast
11:35 AM53.6 °F48.2 °F82 %28.56 in10.0 miSouth (180°)15.0 mph24.2 mph0.01 inOvercast
11:55 AM53.6 °F48.2 °F82 %28.55 in10.0 miSouth (190°)16.1 mph26.5 mph0.01 inOvercast
12:15 PM53.6 °F48.2 °F82 %28.50 in6.0 miSouth (180°)25.3 mph32.2 mphOvercast
12:35 PM0.0 °F0.0 °F28.57 in6.0 miWest (270°)31.1 mph46.0 mph0.05 inMostly Cloudy
12:55 PM42.8 °F37.4 °F81 %28.60 in9.0 miWSW (250°)13.8 mph31.1 mph0.06 inOvercast
1:15 PM42.8 °F37.4 °F81 %28.62 in10.0 miSW (230°)21.9 mph31.1 mph0.02 inOvercast
1:35 PM39.2 °F33.8 °F81 %28.64 in10.0 miWSW (240°)18.4 mph34.5 mph0.03 inOvercast
1:55 PM37.4 °F33.8 °F87 %28.67 in10.0 miWSW (240°)25.3 mph32.2 mph0.03 inOvercast
2:15 PM35.6 °F30.2 °F81 %28.70 in10.0 miWSW (250°)17.3 mph31.1 mph0.01 inOvercast
3:15 PM37.4 °F26.6 °F65 %28.76 in10.0 miSW (230°)25.3 mph43.7 mphMostly Cloudy
3:35 PM35.6 °F23.0 °F60 %28.78 in10.0 miWSW (250°)24.2 mph46.0 mphScattered Clouds
4:15 PM35.6 °F24.8 °F65 %28.80 in10.0 miSW (230°)19.6 mph28.8 mphOvercast
4:35 PM35.6 °F21.2 °F56 %28.82 in10.0 miWSW (240°)25.3 mph36.8 mphMostly Cloudy
4:55 PM35.6 °F23.0 °F60 %28.84 in10.0 miSW (230°)15.0 mph33.4 mphOvercast
5:15 PM33.8 °F21.2 °F60 %28.86 in10.0 miWSW (240°)23.0 mph35.7 mphOvercast
5:35 PM33.8 °F19.4 °F56 %28.88 in10.0 miWSW (240°)18.4 mph29.9 mphOvercast
5:55 PM33.8 °F17.6 °F52 %28.90 in10.0 miSW (230°)23.0 mph36.8 mphOvercast
6:15 PM33.8 °F14.0 °F44 %28.92 in10.0 miWSW (250°)29.9 mph39.1 mphOvercast
6:35 PM33.8 °F15.8 °F48 %28.93 in10.0 miSW (230°)25.3 mph34.5 mphOvercast
6:55 PM32.0 °F14.0 °F48 %28.94 in10.0 miWSW (240°)20.7 mph40.3 mphOvercast
7:15 PM32.0 °F14.0 °F48 %28.95 in10.0 miSW (230°)25.3 mph38.0 mphOvercast
7:35 PM30.2 °F12.2 °F47 %28.96 in10.0 miWSW (240°)18.4 mph27.6 mphOvercast
7:55 PM30.2 °F14.0 °F51 %28.97 in10.0 miSW (230°)23.0 mph34.5 mphOvercast
8:15 PM28.4 °F12.2 °F51 %28.98 in9.0 miWSW (240°)24.2 mph33.4 mphMostly Cloudy
8:35 PM28.4 °F10.4 °F47 %29.00 in10.0 miWSW (240°)23.0 mph33.4 mphMostly Cloudy
8:55 PM28.4 °F14.0 °F55 %29.02 in7.0 miWest (260°)24.2 mph42.6 mphOvercast
9:35 PM26.6 °F17.6 °F69 %29.04 in5.0 miWSW (250°)23.0 mph34.5 mphOvercast
9:55 PM24.8 °F8.6 °F50 %29.03 in10.0 miWSW (240°)25.3 mph43.7 mphOvercast
10:35 PM24.8 °F5.0 °F43 %29.06 in10.0 miWSW (250°)26.5 mph41.4 mphMostly Cloudy
10:55 PM21.2 °F12.2 °F68 %29.08 in8.0 miWest (260°)26.5 mph35.7 mphOvercast
11:15 PM19.4 °F10.4 °F68 %29.09 in8.0 miWSW (240°)13.8 mph26.5 mphMostly Cloudy
11:35 PM19.4 °F5.0 °F54 %29.10 in10.0 miWSW (250°)25.3 mph36.8 mphMostly Cloudy
11:55 PM19.4 °F3.2 °F49 %29.12 in10.0 miWSW (240°)17.3 mph33.4 mphOvercast
Hourly data recorded from KPQI, located miles away from Easton, Maine







STORIES FROM OUR PARTNERS